Location: Newark
(45.6439°N, 0.5436°E)
Time: 16:12:33
(UTC+00:00)

ISS - Pass Details

Date: 13 November 2019
Orbit: 411 x 421 km, 51.6° (Epoch: 10 December)

Event Time Altitude Azimuth Distance (km) Brightness Sun altitude
Exits shadow 04:45:50 19° 170° (S) 1,074 -1.6 -22.4°
Drops below altitude 10° 04:47:06 10° 156° (SSE) 1,500 -0.6 -22.2°
Sets 04:49:19 0° 146° (SE) 2,359 0.6 -21.8°
